{"data":{"norad_id":57932,"intl_designator":"2023-147V","name":"STARLINK-30471","alt_names":[],"object_type":"PAYLOAD","status":"ACTIVE","operator":null,"country":"US","launch_date":"2023-09-24","launch_site_code":"AFETR","launch_vehicle":null,"mission":null,"orbit_class":"UNKNOWN","rcs_meters":null,"size_class":null,"mass_kg":null,"dimensions":null,"purposes":["comms"],"wikipedia_slug":null,"has_3d_model":false,"image_url":null,"decayed_at":null,"tle_current":{"epoch":"2026-05-25T00:10:05.587104Z","epoch_age_seconds":74179,"freshness":"FRESH","line1":"1 57932U 23147V   26145.00700911  .00000690  00000+0  34609-4 0  9999","line2":"2 57932  43.0009 253.8742 0001204 273.9545  86.1169 15.27576647148270","mean_motion":15.27576647,"eccentricity":0.0001204,"inclination_deg":43.0009,"raan_deg":253.8742,"arg_perigee_deg":273.9545,"mean_anomaly_deg":86.1169,"bstar":3.4609e-5,"rev_number":14827,"period_min":94.266955627268,"perigee_km":482.23304813146,"apogee_km":483.88522416104,"semimajor_km":6861.1961361463,"source":"CELESTRAK","updated_at":"2026-05-25T13:38:18.459537Z"}}}